Location: Chervonnoye
(48.6000°N, 34.4000°E)
Time: 01:19:13
(UTC+00:00)

NOAA 15 - Pass Details

Date: 29 November 2021
Orbit: 797 x 812 km, 98.7° (Epoch: 17 January)

Event Time Altitude Azimuth Distance (km) Brightness Sun altitude
Rises 17:54:06 0° 211° (SSW) 3,320 8.0 -39.5°
Reaches altitude 10° 17:57:16 10° 231° (SW) 2,393 7.4 -40.0°
Maximum altitude 18:00:41 17° 271° (W) 1,936 7.1 -40.5°
Drops below altitude 10° 18:04:07 10° 312° (NW) 2,399 7.6 -41.1°
Sets 18:07:18 0° 332° (NNW) 3,332 8.3 -41.6°
